User: anonymous   Login
Location: Unspecified
(0.0000°N, 0.0000°E)
Time: 21:22:16
(UTC+02:00)
Language:

ATLAS 5 CENTAUR R/B - Orbit

View from above orbital plane
View from above orbital plane
View from above satellite
View from above satellite

Ground track
Ground track

The orbit data is extracted from the following two-line orbital elements,

1 31702U 07027B   16181.97673833 0.00000850  00000-0  31427-3 0    08
2 31702  63.3637 168.8159 0231000   0.3182 359.6817 14.18499606    08
Epoch (UTC): 29 June 2016 23:26:30
Eccentricity: 0.0231000
inclination: 63.3637°
perigee height: 664 km
apogee height: 997 km
right ascension of ascending node: 168.8159°
argument of perigee: 0.3182°
revolutions per day: 14.18499606
mean anomaly at epoch: 359.6817°
orbit number at epoch: 0

The dashed part of the orbit path shows where the satellite is in the earth's shadow,  

DLR